Вернуться в каталог

FLOCK 4G 29

АктивенНаукаSSO
NORAD 62642·PAYLOAD·🇺🇸 United States

Запущен Jan 14, 2025 с Vandenberg Space Force Base

Loading…

Ближайшие Пролёты (ближайшие 24 часа)

TLE

СвежийSource: Space-Track

Эпоха: Sep 13, 2026, 23:13 UTC

1 62642U 25009AK  26256.96776581  .00034851  00000-0  10894-2 0  9991
2 62642  97.3964 338.6839 0000867 321.0964  39.0216 15.33078724 92480

Отслеживайте FLOCK 4G 29 в реальном времени с AllMySat

Download on the App Store